�N����,����,�~����,�C��,���x,�C��,����,���ϕ���,�ő�u�ԕ���,�ő厞����,���˗�,�I�_���x,�n�����x,�ő啗���N��,DTYPE
"20/06/04","00:10",0.0,19.1,80.6,1000.0,342.1,0.6,1.9,344.4,0.00,15.7,21.4,"00:00:56",1
"20/06/04","00:20",0.0,18.8,81.2,1000.0,313.3,1.1,1.3,334.3,0.00,15.6,21.5,"00:15:44",1
"20/06/04","00:30",0.0,18.5,82.0,1000.0,304.8,1.0,1.4,318.7,0.00,15.4,21.4,"00:24:56",1
"20/06/04","00:40",0.0,18.3,82.7,1000.3,274.6,0.7,1.1,272.6,0.00,15.3,21.2,"00:39:52",1
"20/06/04","00:50",0.0,18.3,83.0,1000.5,278.5,1.0,1.4,315.6,0.00,15.4,21.2,"00:40:02",1
"20/06/04","01:00",0.0,18.3,83.3,1000.3,297.1,1.0,1.6,316.3,0.00,15.5,21.1,"00:56:56",1
"20/06/04","01:10",0.0,18.2,83.4,1000.3,306.3,1.1,1.7,319.5,0.00,15.4,21.1,"01:02:48",1
"20/06/04","01:20",0.0,18.2,83.5,1000.0,279.0,1.0,1.2,291.4,0.00,15.4,21.0,"01:11:44",1
"20/06/04","01:30",0.0,18.0,83.6,1000.0,288.1,0.8,1.2,267.4,0.00,15.2,21.1,"01:22:16",1
"20/06/04","01:40",0.0,18.0,83.7,1000.0,294.2,1.0,2.4,341.2,0.00,15.2,21.0,"01:32:56",1
"20/06/04","01:50",0.0,18.2,83.7,1000.0,308.8,1.5,2.5,322.7,0.00,15.4,20.8,"01:47:12",1
"20/06/04","02:00",0.0,18.1,83.6,1000.0,285.1,1.0,1.7,294.7,0.00,15.3,20.9,"01:56:16",1
"20/06/04","02:10",0.0,18.1,83.5,1000.0,310.1,0.7,1.6,320.4,0.00,15.3,20.8,"02:00:24",1
"20/06/04","02:20",0.0,18.0,83.6,999.8,329.2,0.6,1.1,318.1,0.00,15.2,20.6,"02:11:04",1
"20/06/04","02:30",0.0,18.0,84.1,1000.0,311.6,1.2,1.7,319.9,0.00,15.3,20.8,"02:28:48",1
"20/06/04","02:40",0.0,17.7,84.6,999.8,319.2,1.3,1.8,321.4,0.00,15.1,20.4,"02:31:04",1
"20/06/04","02:50",0.0,17.5,85.1,999.8,305.7,1.1,1.7,327.3,0.00,15.0,20.4,"02:41:44",1
"20/06/04","03:00",0.0,17.5,85.6,999.6,275.1,1.0,1.3,318.7,0.00,15.1,20.7,"02:50:24",1
"20/06/04","03:10",0.0,17.5,85.9,1000.0,281.5,1.0,1.4,257.5,0.00,15.2,20.5,"03:09:44",1
"20/06/04","03:20",0.0,17.5,86.1,999.6,312.1,1.2,2.0,321.7,0.00,15.2,20.4,"03:19:36",1
"20/06/04","03:30",0.0,17.5,86.3,999.8,315.2,1.1,2.2,312.0,0.00,15.2,20.5,"03:20:40",1
"20/06/04","03:40",0.0,17.4,86.5,999.8,312.1,1.1,1.6,314.0,0.00,15.2,20.4,"03:38:32",1
"20/06/04","03:50",0.0,17.1,86.7,999.8,310.1,0.8,1.2,315.1,0.00,14.9,20.3,"03:40:32",1
"20/06/04","04:00",0.0,17.2,87.0,999.8,318.2,1.1,1.7,318.9,0.00,15.1,20.2,"03:59:28",1
"20/06/04","04:10",0.0,17.1,87.3,999.8,290.0,1.0,1.7,321.5,0.00,15.0,20.3,"04:01:52",1
"20/06/04","04:20",0.0,17.2,87.6,1000.0,285.2,1.0,1.4,279.0,0.00,15.2,20.3,"04:19:12",1
"20/06/04","04:30",0.0,17.4,87.7,1000.0,299.4,1.1,2.0,316.7,0.00,15.4,20.2,"04:29:36",1
"20/06/04","04:40",0.0,17.4,87.8,1000.0,325.6,1.2,2.1,334.2,0.00,15.4,20.2,"04:31:20",1
"20/06/04","04:50",0.0,17.3,87.9,1000.3,292.6,0.7,1.6,322.4,0.00,15.3,20.3,"04:40:40",1
"20/06/04","05:00",0.0,17.3,88.1,1000.3,304.9,1.0,1.7,334.6,0.00,15.4,20.2,"04:50:48",1
"20/06/04","05:10",0.0,17.3,88.2,1000.5,318.6,1.2,1.8,337.9,0.00,15.4,20.2,"05:01:28",1
"20/06/04","05:20",0.0,17.4,88.5,1000.5,318.1,1.1,1.4,339.1,0.00,15.5,19.9,"05:17:52",1
"20/06/04","05:30",0.0,17.5,88.6,1000.0,305.5,0.8,1.4,354.3,0.00,15.6,19.8,"05:21:04",1
"20/06/04","05:40",0.0,17.8,88.7,1000.3,308.5,1.5,2.1,318.6,0.00,16.0,20.1,"05:31:36",1
"20/06/04","05:50",0.0,18.1,88.6,1000.3,296.1,1.2,2.6,322.2,0.01,16.2,20.2,"05:42:16",1
"20/06/04","06:00",0.0,18.3,88.5,1000.8,307.3,0.6,1.0,283.5,0.01,16.4,20.2,"05:50:16",1
"20/06/04","06:10",0.0,18.4,88.4,1000.5,330.4,0.8,1.3,328.6,0.02,16.5,20.1,"06:09:28",1
"20/06/04","06:20",0.0,18.5,88.4,1000.5,318.0,0.8,1.3,334.8,0.03,16.6,19.9,"06:10:16",1
"20/06/04","06:30",0.0,18.8,88.3,1000.5,302.1,0.7,1.7,322.4,0.04,16.9,20.4,"06:20:40",1
"20/06/04","06:40",0.0,19.0,88.0,1000.8,318.3,1.2,1.7,327.6,0.05,17.0,20.2,"06:37:36",1
"20/06/04","06:50",0.0,19.3,87.7,1000.8,300.1,1.1,1.7,285.3,0.06,17.2,20.3,"06:46:08",1
"20/06/04","07:00",0.0,19.5,87.3,1000.8,292.1,1.0,1.3,334.6,0.07,17.4,20.2,"06:50:08",1
"20/06/04","07:10",0.0,19.8,87.0,1001.0,288.6,0.8,1.6,269.7,0.08,17.6,20.3,"07:01:28",1
"20/06/04","07:20",0.0,20.1,86.3,1000.5,292.6,1.0,1.9,306.9,0.08,17.8,20.6,"07:11:12",1
"20/06/04","07:30",0.0,20.3,85.4,1000.8,267.9,0.8,1.4,271.1,0.10,17.8,20.5,"07:25:20",1
"20/06/04","07:40",0.0,20.7,84.3,1000.5,256.4,0.8,1.4,237.6,0.11,18.0,20.7,"07:38:32",1
"20/06/04","07:50",0.0,21.2,83.0,1000.5,256.4,0.5,1.2,333.6,0.13,18.2,20.9,"07:47:36",1
"20/06/04","08:00",0.0,21.6,81.3,1000.3,221.6,0.2,0.8,253.6,0.14,18.3,21.1,"07:50:24",1
"20/06/04","08:10",0.0,22.0,79.2,1000.5,19.2,0.6,1.2,353.3,0.17,18.3,21.1,"08:04:24",1
"20/06/04","08:20",0.0,22.7,76.9,1000.0,42.1,0.3,1.2,343.1,0.20,18.5,21.3,"08:13:20",1
"20/06/04","08:30",0.0,23.4,73.2,1000.0,351.8,0.8,1.8,353.5,0.30,18.4,21.4,"08:22:56",1
"20/06/04","08:40",0.0,24.1,69.2,1000.0,33.8,0.5,1.1,39.1,0.27,18.1,21.5,"08:35:44",1
"20/06/04","08:50",0.0,24.4,66.8,999.6,12.1,0.7,1.3,345.5,0.29,17.9,21.8,"08:44:00",1
"20/06/04","09:00",0.0,24.6,66.6,999.3,119.3,0.6,1.7,136.8,0.27,18.0,22.0,"08:54:40",1
"20/06/04","09:10",0.0,24.9,66.7,999.1,189.1,0.8,1.4,234.2,0.26,18.3,22.0,"09:03:52",1
"20/06/04","09:20",0.0,25.1,66.9,998.9,157.4,0.6,2.1,190.2,0.24,18.6,22.5,"09:18:48",1
"20/06/04","09:30",0.0,25.2,67.3,998.6,177.0,1.1,2.5,211.9,0.27,18.8,22.3,"09:27:04",1
"20/06/04","09:40",0.0,25.3,66.7,998.9,189.9,1.0,1.8,205.2,0.27,18.7,22.7,"09:30:32",1
"20/06/04","09:50",0.0,25.7,65.2,999.1,192.5,0.7,1.8,181.0,0.28,18.7,23.0,"09:49:12",1
"20/06/04","10:00",0.0,26.0,64.8,998.6,199.1,0.7,2.0,209.1,0.30,18.9,22.9,"09:50:08",1
"20/06/04","10:10",0.0,26.2,63.4,999.1,143.6,0.7,2.0,142.1,0.29,18.7,23.2,"10:02:16",1
"20/06/04","10:20",0.0,26.6,62.7,999.6,202.2,0.5,1.4,155.0,0.35,18.9,23.2,"10:12:32",1
"20/06/04","10:30",0.0,27.6,60.8,999.6,274.4,0.6,1.8,225.2,0.47,19.4,23.5,"10:28:00",1
"20/06/04","10:40",0.0,27.3,59.1,999.8,163.1,1.1,2.2,172.7,0.35,18.7,23.8,"10:31:44",1
"20/06/04","10:50",0.0,27.5,57.9,999.8,171.4,1.0,2.5,202.2,0.42,18.5,23.9,"10:40:08",1
"20/06/04","11:00",0.0,28.1,55.6,999.6,153.5,0.7,2.4,193.2,0.43,18.4,24.3,"10:51:44",1
"20/06/04","11:10",0.0,28.5,52.3,999.8,44.5,0.8,2.7,346.6,0.44,17.8,24.4,"11:05:52",1
"20/06/04","11:20",0.0,29.1,52.0,999.6,85.0,0.7,1.9,124.1,0.54,18.3,24.7,"11:19:44",1
"20/06/04","11:30",0.0,29.3,50.7,999.6,152.2,1.1,2.5,147.8,0.53,18.1,25.0,"11:23:12",1
"20/06/04","11:40",0.0,29.5,49.8,999.8,120.9,0.7,1.9,150.0,0.47,18.0,25.2,"11:35:28",1
"20/06/04","11:50",0.0,29.3,48.3,1000.0,179.3,1.3,2.9,200.8,0.42,17.3,25.5,"11:44:48",1
"20/06/04","12:00",0.0,29.7,47.3,999.6,206.7,1.0,2.4,176.1,0.48,17.3,25.9,"11:59:52",1
"20/06/04","12:10",0.0,29.9,46.7,999.6,199.7,1.3,2.8,218.7,0.48,17.3,25.8,"12:01:12",1
"20/06/04","12:20",0.0,30.3,46.4,999.3,94.8,1.2,2.9,325.2,0.51,17.6,26.2,"12:12:16",1
"20/06/04","12:30",0.0,30.4,44.2,999.3,128.7,1.3,3.5,140.1,0.57,16.9,26.4,"12:24:40",1
"20/06/04","12:40",0.0,31.0,44.1,999.6,19.2,0.8,2.1,16.5,0.55,17.4,26.6,"12:34:08",1
"20/06/04","12:50",0.0,31.0,43.7,999.6,314.0,1.0,2.6,354.1,0.48,17.3,26.7,"12:44:48",1
"20/06/04","13:00",0.0,31.7,43.4,999.6,64.5,0.7,2.1,195.1,0.53,17.8,26.8,"12:59:44",1
"20/06/04","13:10",0.0,31.5,42.4,999.3,242.2,0.8,2.8,196.7,0.48,17.2,26.7,"13:00:16",1
"20/06/04","13:20",0.0,31.4,44.4,999.3,165.7,1.3,3.5,195.2,0.48,17.9,26.7,"13:13:12",1
"20/06/04","13:30",0.0,31.9,42.5,999.3,231.1,0.7,1.7,335.5,0.45,17.6,26.8,"13:28:24",1
"20/06/04","13:40",0.0,31.6,42.5,999.1,193.1,1.1,2.9,186.6,0.44,17.4,26.5,"13:33:44",1
"20/06/04","13:50",0.0,31.2,42.5,998.9,177.4,1.2,3.6,219.2,0.33,17.0,26.7,"13:41:36",1
"20/06/04","14:00",0.0,31.6,42.9,998.9,162.2,1.2,3.3,118.9,0.38,17.5,26.9,"13:58:24",1
"20/06/04","14:10",0.0,32.1,41.0,999.1,107.9,0.8,2.1,43.6,0.41,17.2,27.1,"14:02:00",1
"20/06/04","14:20",0.0,32.1,40.7,999.1,230.6,1.2,2.5,223.1,0.44,17.1,26.9,"14:16:56",1
"20/06/04","14:30",0.0,32.5,40.2,998.9,224.4,1.1,3.7,214.3,0.42,17.3,27.1,"14:26:56",1
"20/06/04","14:40",0.0,32.6,36.6,998.9,284.8,1.2,3.3,228.4,0.39,15.9,27.0,"14:30:08",1
"20/06/04","14:50",0.0,32.5,35.7,998.6,208.8,1.3,3.4,210.8,0.39,15.4,27.2,"14:46:16",1
"20/06/04","15:00",0.0,32.5,35.8,998.6,216.0,1.6,3.5,190.3,0.36,15.5,27.0,"14:50:40",1
"20/06/04","15:10",0.0,32.2,36.9,998.6,129.7,1.2,2.8,138.5,0.30,15.7,27.0,"15:00:48",1
"20/06/04","15:20",0.0,32.5,33.4,998.9,235.6,1.2,3.5,223.6,0.32,14.4,27.2,"15:12:56",1
"20/06/04","15:30",0.0,32.5,32.9,998.6,245.7,1.5,3.9,222.2,0.34,14.2,27.1,"15:23:52",1
"20/06/04","15:40",0.0,32.5,35.0,998.4,221.6,1.6,5.0,204.4,0.31,15.1,27.2,"15:30:02",1
"20/06/04","15:50",0.0,32.3,34.4,998.4,199.2,2.0,4.9,229.1,0.29,14.7,27.0,"15:40:32",1
"20/06/04","16:00",0.0,32.3,35.5,998.4,206.9,1.8,4.7,209.7,0.27,15.2,27.2,"15:54:56",1
"20/06/04","16:10",0.0,32.8,35.3,998.6,212.5,1.2,3.9,191.9,0.28,15.5,27.1,"16:03:12",1
"20/06/04","16:20",0.0,32.8,36.1,998.2,214.0,1.1,4.1,216.6,0.24,15.9,27.2,"16:17:36",1
"20/06/04","16:30",0.0,32.4,34.8,997.9,212.4,1.6,3.3,218.2,0.22,14.9,27.0,"16:24:16",1
"20/06/04","16:40",0.0,32.5,34.3,997.9,252.9,1.1,2.9,224.9,0.21,14.8,27.1,"16:34:00",1
"20/06/04","16:50",0.0,32.0,34.5,997.4,241.3,1.5,3.6,242.2,0.10,14.4,27.2,"16:42:16",1
"20/06/04","17:00",0.0,31.9,36.1,997.4,246.4,1.1,2.9,224.6,0.07,15.1,27.1,"16:50:48",1
"20/06/04","17:10",0.0,31.8,36.3,997.4,190.0,1.2,2.0,225.1,0.05,15.1,27.0,"17:06:08",1
"20/06/04","17:20",0.0,31.6,36.2,997.4,181.3,1.0,2.8,209.5,0.06,14.8,26.9,"17:15:36",1
"20/06/04","17:30",0.0,31.3,44.0,997.2,97.3,1.0,2.0,105.4,0.06,17.6,27.0,"17:28:56",1
"20/06/04","17:40",0.0,30.5,45.4,997.2,101.5,1.2,3.5,119.3,0.05,17.4,26.9,"17:34:08",1
"20/06/04","17:50",0.0,30.4,45.5,997.0,89.2,1.2,3.1,97.2,0.06,17.4,26.8,"17:43:36",1
"20/06/04","18:00",0.0,30.0,47.0,996.5,56.9,1.0,2.9,60.0,0.03,17.5,27.0,"17:51:36",1
"20/06/04","18:10",0.0,29.8,47.5,996.0,31.1,1.1,3.1,351.7,0.03,17.5,26.6,"18:08:00",1
"20/06/04","18:20",0.0,29.4,48.5,996.5,21.7,1.1,2.8,45.0,0.02,17.5,26.5,"18:10:56",1
"20/06/04","18:30",0.0,29.0,48.3,996.3,14.1,1.7,4.7,359.5,0.00,17.0,26.3,"18:28:00",1
"20/06/04","18:40",0.0,28.9,45.3,996.0,101.9,1.0,2.6,104.7,0.00,15.9,26.2,"18:39:28",1
"20/06/04","18:50",0.0,28.6,46.7,995.8,70.6,1.0,2.9,27.9,0.00,16.1,26.2,"18:49:52",1
"20/06/04","19:00",0.0,28.1,50.8,996.5,10.8,1.5,3.3,359.1,0.00,17.0,25.8,"18:52:16",1
"20/06/04","19:10",0.0,27.8,47.8,997.0,39.7,1.2,3.3,11.7,0.00,15.8,26.2,"19:02:24",1
"20/06/04","19:20",0.0,27.6,50.5,997.0,96.8,1.3,3.7,125.0,0.00,16.4,25.6,"19:12:40",1
"20/06/04","19:30",0.0,26.7,54.3,997.0,163.8,1.8,3.9,131.0,0.00,16.8,25.7,"19:20:32",1
"20/06/04","19:40",0.0,26.3,54.9,997.7,251.8,1.7,3.9,227.1,0.00,16.6,25.4,"19:32:00",1
"20/06/04","19:50",0.0,26.0,56.4,997.7,277.1,1.5,4.2,342.4,0.00,16.7,25.4,"19:40:56",1
"20/06/04","20:00",0.0,25.3,58.4,997.9,280.9,0.8,1.2,263.9,0.00,16.6,24.9,"19:52:00",1
"20/06/04","20:10",0.0,24.7,60.6,998.4,250.7,0.6,1.6,255.3,0.00,16.6,24.9,"20:08:54",1
"20/06/04","20:20",0.0,24.2,62.5,998.4,312.3,1.2,1.9,328.4,0.00,16.6,24.9,"20:18:24",1
"20/06/04","20:30",0.0,23.9,64.2,998.9,320.1,1.2,2.0,324.0,0.00,16.8,24.7,"20:27:36",1
"20/06/04","20:40",0.0,23.5,65.6,998.9,324.9,1.3,2.1,338.1,0.00,16.7,24.6,"20:31:28",1
"20/06/04","20:50",0.0,23.2,66.9,998.9,316.7,0.8,1.6,324.6,0.00,16.8,24.3,"20:44:48",1
"20/06/04","21:00",0.0,22.7,67.8,998.9,299.6,1.0,1.4,325.2,0.00,16.5,24.1,"20:56:48",1
"20/06/04","21:10",0.0,22.3,69.4,999.3,319.7,1.2,1.6,329.1,0.00,16.5,24.0,"21:07:04",1
"20/06/04","21:20",0.0,21.9,71.2,999.1,284.0,0.7,1.3,302.5,0.00,16.5,23.9,"21:10:56",1
"20/06/04","21:30",0.0,21.4,72.4,999.6,288.0,0.7,1.2,318.8,0.00,16.3,23.8,"21:26:16",1
"20/06/04","21:40",0.0,21.6,73.8,999.6,331.4,0.7,1.8,343.2,0.00,16.8,23.8,"21:37:44",1
"20/06/04","21:50",0.0,21.5,74.7,999.8,293.6,1.1,1.3,350.6,0.00,16.9,23.5,"21:41:20",1
"20/06/04","22:00",0.0,21.3,75.0,999.8,294.0,1.1,2.4,329.4,0.00,16.7,23.2,"21:58:24",1
"20/06/04","22:10",0.0,21.1,75.2,999.6,291.3,1.0,1.6,319.5,0.00,16.6,23.3,"22:01:28",1
"20/06/04","22:20",0.0,21.1,75.5,1000.3,311.9,1.5,2.8,334.3,0.00,16.6,23.1,"22:14:48",1
"20/06/04","22:30",0.0,20.9,76.2,999.8,320.2,1.3,2.5,337.6,0.00,16.6,23.2,"22:25:44",1
"20/06/04","22:40",0.0,20.7,76.6,1000.3,283.1,0.8,1.4,312.6,0.00,16.5,23.0,"22:30:08",1
"20/06/04","22:50",0.0,20.5,77.2,1000.3,295.7,1.1,1.8,318.2,0.00,16.4,23.0,"22:48:32",1
"20/06/04","23:00",0.0,20.4,77.7,1000.3,322.5,1.6,2.5,341.4,0.00,16.4,22.8,"22:50:08",1
"20/06/04","23:10",0.0,20.2,78.1,1000.3,286.5,1.1,1.9,308.5,0.00,16.3,22.7,"23:00:08",1
"20/06/04","23:20",0.0,20.0,78.5,1000.0,305.5,0.8,1.6,331.2,0.00,16.2,22.5,"23:19:20",1
"20/06/04","23:30",0.0,19.8,79.0,1000.0,294.0,0.8,1.8,332.4,0.00,16.1,22.5,"23:21:36",1
"20/06/04","23:40",0.0,19.8,79.4,999.8,302.0,1.1,2.1,320.2,0.00,16.2,22.6,"23:32:56",1
"20/06/04","23:50",0.0,19.7,79.7,1000.5,286.7,0.8,1.3,302.5,0.00,16.1,22.6,"23:42:32",1
"20/06/04","24:00",0.0,19.6,80.1,1000.5,279.7,0.8,1.2,271.5,0.00,16.1,22.3,"23:55:28",1
